VA7SHG-1 Weather Reports


time (UTC)temp
C
wind
direction
speed
KPH
gust
KPH
rain 1hr
cm
rain 24hr
cm
rain mn
cm
humidity
%
barometer
mb
20260504130519 14 0.0 0.0 0.00 0.00 0.00 66 1010.6
20260504110519 13 0.0 0.0 0.00 0.00 0.00 73 1010.6
20260504100517 15 0.0 0.0 0.00 0.00 0.00 69 1010.5
20260504081519 17 67 0.0 4.8 0.00 0.00 0.00 60 1010.5
20260504080539 17 90 1.6 4.8 0.00 0.00 0.00 58 1010.5
20260504050518 19 25 1.6 4.8 0.00 0.00 0.00 61 1010.1
20260504045537 20 326 3.2 8.0 0.00 0.00 0.00 58 1010.1
20260504044518 20 306 3.2 8.0 0.00 0.00 0.00 55 1010.1
20260504044437 15 89 0.0 4.8 0.00 0.00 0.00 64 1015.7
20260504043518 21 159 0.0 4.8 0.00 0.00 0.00 50 1010.0
20260504042517 21 0.0 0.0 0.00 0.00 0.00 51 1010.0
20260504041518 21 78 0.0 4.8 0.00 0.00 0.00 53 1009.9
20260504040518 22 0.0 0.0 0.00 0.00 0.00 50 1009.8
20260504035517 22 345 0.0 4.8 0.00 0.00 0.00 47 1009.7
20260504034517 23 246 0.0 8.0 0.00 0.00 0.00 39 1009.7
20260504034433 15 89 0.0 4.8 0.00 0.00 0.00 64 1015.7
20260504033518 24 249 1.6 4.8 0.00 0.00 0.00 39 1009.6
20260504032517 24 259 3.2 12.9 0.00 0.00 0.00 39 1009.5
20260504031516 25 257 1.6 8.0 0.00 0.00 0.00 39 1009.5
20260504030518 25 262 8.0 20.9 0.00 0.00 0.00 38 1009.5
20260504025517 26 261 6.4 24.1 0.00 0.00 0.00 37 1009.4
20260504024517 26 259 8.0 24.1 0.00 0.00 0.00 37 1009.4
20260504024434 15 89 0.0 4.8 0.00 0.00 0.00 64 1015.7
20260504023518 26 265 8.0 24.1 0.00 0.00 0.00 37 1009.3
20260504022517 27 257 11.3 29.0 0.00 0.00 0.00 38 1009.4
20260504021517 27 265 9.7 29.0 0.00 0.00 0.00 39 1009.4
20260504020516 27 247 8.0 29.0 0.00 0.00 0.00 39 1009.5
20260504015518 27 240 4.8 24.1 0.00 0.00 0.00 39 1009.6
20260504014517 27 247 11.3 32.2 0.00 0.00 0.00 38 1009.7
20260504014432 15 89 0.0 4.8 0.00 0.00 0.00 64 1015.7
20260504013516 28 228 8.0 29.0 0.00 0.00 0.00 37 1009.7
20260504012518 28 255 6.4 32.2 0.00 0.00 0.00 37 1009.7
20260504011517 28 249 9.7 29.0 0.00 0.00 0.00 35 1009.8
20260504010517 29 228 8.0 24.1 0.00 0.00 0.00 34 1009.9
20260504005518 29 239 11.3 32.2 0.00 0.00 0.00 32 1010.0
20260504004537 29 244 11.3 24.1 0.00 0.00 0.00 32 1010.0
20260504004432 15 89 0.0 4.8 0.00 0.00 0.00 64 1015.7
20260504003517 30 260 17.7 32.2 0.00 0.00 0.00 32 1010.1
20260504002536 30 248 6.4 20.9 0.00 0.00 0.00 32 1010.1
20260504001517 29 282 16.1 37.0 0.00 0.00 0.00 32 1010.2
20260504000517 30 272 12.9 24.1 0.00 0.00 0.00 31 1010.3
20260503235556 30 267 16.1 37.0 0.00 0.00 0.00 32 1010.4
20260503234517 29 279 17.7 37.0 0.00 0.00 0.00 31 1010.4
20260503234432 15 89 0.0 4.8 0.00 0.00 0.00 64 1015.7
20260503233537 30 292 12.9 29.0 0.00 0.00 0.00 30 1010.5
20260503232516 30 298 9.7 24.1 0.00 0.00 0.00 29 1010.6
20260503231517 30 270 11.3 20.9 0.00 0.00 0.00 30 1010.8
20260503230517 30 228 4.8 12.9 0.00 0.00 0.00 29 1010.8
20260503225516 29 273 11.3 29.0 0.00 0.00 0.00 30 1011.0
20260503224516 29 292 8.0 24.1 0.00 0.00 0.00 30 1011.2
20260503224435 15 89 0.0 4.8 0.00 0.00 0.00 64 1015.7
20260503223517 29 271 17.7 32.2 0.00 0.00 0.00 30 1011.4
20260503222517 29 266 9.7 20.9 0.00 0.00 0.00 29 1011.4
20260503221516 29 278 11.3 29.0 0.00 0.00 0.00 29 1011.6
20260503220517 29 264 9.7 29.0 0.00 0.00 0.00 28 1011.7
20260503215517 28 263 11.3 20.9 0.00 0.00 0.00 28 1011.8
20260503214516 28 288 16.1 32.2 0.00 0.00 0.00 28 1012.0
20260503214437 15 89 0.0 4.8 0.00 0.00 0.00 64 1015.7
20260503213535 28 273 12.9 29.0 0.00 0.00 0.00 28 1012.1
20260503212537 28 319 9.7 20.9 0.00 0.00 0.00 27 1012.2
20260503211516 28 285 11.3 20.9 0.00 0.00 0.00 27 1012.3
20260503210536 28 274 6.4 20.9 0.00 0.00 0.00 27 1012.4
20260503205517 27 267 9.7 24.1 0.00 0.00 0.00 28 1012.6
20260503204517 27 328 11.3 20.9 0.00 0.00 0.00 28 1012.8
20260503204432 15 89 0.0 4.8 0.00 0.00 0.00 64 1015.7
20260503203516 27 303 9.7 20.9 0.00 0.00 0.00 29 1012.9
20260503202515 27 249 6.4 16.1 0.00 0.00 0.00 30 1013.0
20260503201517 27 290 11.3 29.0 0.00 0.00 0.00 30 1013.1
20260503200516 27 287 9.7 16.1 0.00 0.00 0.00 30 1013.3
20260503195515 27 313 6.4 20.9 0.00 0.00 0.00 28 1013.4
20260503194517 27 187 6.4 12.9 0.00 0.00 0.00 29 1013.6
20260503194433 15 89 0.0 4.8 0.00 0.00 0.00 64 1015.7
20260503193517 26 120 4.8 12.9 0.00 0.00 0.00 30 1013.6
20260503192516 26 150 4.8 12.9 0.00 0.00 0.00 31 1013.7
20260503191517 26 41 4.8 12.9 0.00 0.00 0.00 30 1013.8
20260503190517 26 191 3.2 12.9 0.00 0.00 0.00 29 1013.9
20260503185536 25 182 6.4 16.1 0.00 0.00 0.00 30 1014.0
20260503184515 25 103 3.2 12.9 0.00 0.00 0.00 30 1014.2
20260503184432 15 89 0.0 4.8 0.00 0.00 0.00 64 1015.7
20260503183517 26 124 3.2 8.0 0.00 0.00 0.00 30 1014.2
20260503182536 25 161 3.2 8.0 0.00 0.00 0.00 33 1014.3
20260503181516 24 78 3.2 8.0 0.00 0.00 0.00 33 1014.5
20260503180517 23 8 6.4 12.9 0.00 0.00 0.00 35 1014.6
20260503175516 24 3 4.8 12.9 0.00 0.00 0.00 34 1014.8
20260503174556 23 41 3.2 12.9 0.00 0.00 0.00 35 1014.9
20260503174432 15 89 0.0 4.8 0.00 0.00 0.00 64 1015.7
20260503173535 22 44 8.0 16.1 0.00 0.00 0.00 37 1015.1
20260503172517 22 167 4.8 8.0 0.00 0.00 0.00 37 1015.2
20260503171516 22 10 3.2 16.1 0.00 0.00 0.00 38 1015.3
20260503170515 21 91 8.0 16.1 0.00 0.00 0.00 40 1015.4
20260503150527 18 101 1.6 8.0 0.00 0.00 0.00 46 1016.2